Terminal Aerodrome Forecast
Issued by NWS

Home | Current Version | Previous Version | Text Only | Print | Product List | Glossary On
Versions: 1 2 3 4 5 6 7 8 9 10 11 12 13 14 15 16 17 18 19 20 21 22 23 24 25 26
000
FTPA31 PHFO 280500
TAFKOA
TAF
PHKO 280520Z 2806/2906 15011KT P6SM SCT030 BKN050
     FM280800 04006KT P6SM SCT060
     FM281900 19009KT P6SM FEW030 SCT060=

USA.gov is the U.S. government's official web portal to all federal, state and local government web resources and services.